London-Corbin, KY

6:33 AM EDT on September 26, 2017 (GMT -0400)
London-Corbin / McKee

Weather History for KLOZ - December, 2013

Change the Weather History Date:

Saturday, December 21, 2013

  Actual Average Record
Temperature  
Mean Temperature 64 °F 37 °F  
Max Temperature 72 °F 46 °F 72 °F (1967)
Min Temperature 56 °F 28 °F 0 °F (1960)
Degree Days  
Heating Degree Days 1 28  
Month to date heating degree days 470 536  
Since 1 July heating degree days 1337 1366  
Cooling Degree Days 0 0  
Month to date cooling degree days 0 0  
Year to date cooling degree days 1083 1190  
Growing Degree Days 14 (Base 50)    
Moisture  
Dew Point 57 °F    
Average Humidity 77    
Maximum Humidity 87    
Minimum Humidity 66    
Precipitation  
Precipitation 0.15 in 0.13 in 1.47 in (1981)
Month to date precipitation 4.22 2.97  
Year to date precipitation 54.20  
Sea Level Pressure  
Sea Level Pressure 29.85 in    
Wind  
Wind Speed 11 mph (South)    
Max Wind Speed 28 mph    
Max Gust Speed 37 mph    
Visibility 9 miles    
Events Rain    
T = Trace of Precipitation, MM = Missing Value Source: NWS Daily Summary

Daily Weather History Graph

Daily Weather History Graph

Search for Another Location

Airport or City:

Trip Planner

Search our weather history database for the weather conditions in past years. The results will help you decide how hot, cold, wet, or windy it might be!

Date:

Astronomy

Dec. 21, 2013 Rise Set
Actual Time 7:46 AM EST 5:23 PM EST
Civil Twilight 7:17 AM EST 5:52 PM EST
Nautical Twilight 6:44 AM EST 6:24 PM EST
Astronomical Twilight 6:12 AM EST 6:56 PM EST
Moon 9:33 PM EST (12/21) 10:16 AM EST (12/21)
Length of Visible Light 10h 34m
Length of Day
9h 36m
Waning Gibbous, 84% of the Moon is Illuminated
Dec 21
Waning Gibbous
Dec 25
Last Quarter
Jan 1
New
Jan 7
First Quarter
Jan 15
Full

Hourly Weather History & Observations

Time (EST) Temp. Dew Point Humidity Pressure Visibility Wind Dir Wind Speed Gust Speed Precip Events Conditions
12:34 AM 61.0 °F 51.1 °F 70% 29.98 in 10.0 mi South 9.2 mph - 0.00 in   Overcast
12:53 AM 60.1 °F 52.0 °F 75% 29.96 in 10.0 mi South 9.2 mph - 0.00 in Rain Light Rain
1:28 AM 57.9 °F 53.1 °F 84% 29.97 in 10.0 mi South 8.1 mph - 0.00 in   Overcast
1:53 AM 57.9 °F 53.1 °F 84% 29.94 in 9.0 mi South 4.6 mph - 0.01 in   Overcast
2:16 AM 57.0 °F 53.1 °F 87% 29.96 in 9.0 mi South 4.6 mph - 0.04 in Rain Light Rain
2:53 AM 57.0 °F 54.0 °F 89% 29.94 in 9.0 mi SSE 3.5 mph - 0.07 in Rain Light Rain
3:53 AM 57.0 °F 53.1 °F 87% 29.92 in 10.0 mi SSE 3.5 mph - 0.00 in   Overcast
4:53 AM 60.1 °F 53.1 °F 78% 29.91 in 10.0 mi South 8.1 mph - N/A   Overcast
5:53 AM 62.1 °F 54.0 °F 75% 29.89 in 10.0 mi South 11.5 mph 18.4 mph N/A   Overcast
6:53 AM 62.1 °F 54.0 °F 75% 29.87 in 10.0 mi South 12.7 mph 20.7 mph N/A   Overcast
7:49 AM 62.6 °F 53.6 °F 72% 29.88 in 10.0 mi South 10.4 mph 19.6 mph N/A   Mostly Cloudy
7:53 AM 62.1 °F 54.0 °F 75% 29.86 in 10.0 mi South 12.7 mph 19.6 mph N/A   Mostly Cloudy
8:53 AM 63.0 °F 53.1 °F 70% 29.86 in 10.0 mi South 10.4 mph 18.4 mph N/A   Mostly Cloudy
9:53 AM 64.9 °F 54.0 °F 68% 29.86 in 10.0 mi South 12.7 mph 20.7 mph N/A   Mostly Cloudy
10:53 AM 66.9 °F 55.9 °F 68% 29.86 in 10.0 mi South 13.8 mph 25.3 mph N/A   Overcast
11:53 AM 68.0 °F 57.9 °F 70% 29.84 in 10.0 mi South 15.0 mph 24.2 mph N/A   Overcast
12:20 PM 68.0 °F 57.9 °F 70% 29.86 in 10.0 mi South 15.0 mph 23.0 mph N/A   Overcast
12:53 PM 68.0 °F 57.9 °F 70% 29.82 in 10.0 mi South 15.0 mph - N/A   Overcast
1:53 PM 68.0 °F 59.0 °F 73% 29.81 in 10.0 mi South 10.4 mph - N/A   Overcast
2:53 PM 68.0 °F 60.1 °F 76% 29.81 in 10.0 mi South 8.1 mph - N/A   Overcast
3:53 PM 66.0 °F 61.0 °F 84% 29.81 in 2.5 mi South 4.6 mph - 0.01 in Rain Light Rain
4:09 PM 64.9 °F 61.0 °F 87% 29.83 in 4.0 mi SSW 4.6 mph - 0.02 in Rain Light Rain
4:53 PM 64.0 °F 61.0 °F 90% 29.80 in 8.0 mi SSE 4.6 mph - 0.03 in Rain Light Rain
5:24 PM 66.0 °F 61.0 °F 84% 29.81 in 10.0 mi South 5.8 mph - 0.01 in Rain Light Rain
5:53 PM 66.0 °F 60.1 °F 81% 29.79 in 10.0 mi South 5.8 mph - 0.02 in Rain Light Rain
6:53 PM 66.9 °F 60.1 °F 79% 29.78 in 10.0 mi South 10.4 mph - 0.00 in   Overcast
7:53 PM 69.1 °F 59.0 °F 70% 29.75 in 10.0 mi South 12.7 mph 21.9 mph N/A   Scattered Clouds
8:53 PM 71.1 °F 59.0 °F 66% 29.73 in 10.0 mi South 20.7 mph 38.0 mph 0.00 in   Mostly Cloudy
9:53 PM 71.1 °F 59.0 °F 66% 29.73 in 10.0 mi South 19.6 mph 26.5 mph N/A   Overcast
10:53 PM 71.1 °F 60.1 °F 68% 29.70 in 10.0 mi South 12.7 mph 23.0 mph N/A   Scattered Clouds
11:53 PM 68.0 °F 61.0 °F 78% 29.70 in 10.0 mi South 16.1 mph 24.2 mph 0.01 in   Partly Cloudy